Regional Weather Roundup
Issued by NWS Cleveland, OH

Home | Current Version | Previous Version | Graphics & Text | Print | Product List | Glossary On
Versions: 1 2 3 4 5 6 7 8 9 10 11 12 13 14 15 16 17 18 19 20 21 22 23 24 25 26 27 28 29 30 31 32 33 34 35 36 37 38 39 40 41 42 43 44 45 46 47 48 49 50
000
ASUS41 KCLE 090502
RWRCLE
OHIO REGIONAL WEATHER ROUNDUP
NATIONAL WEATHER SERVICE CLEVELAND, OH
1200 AM EST TUE FEB 09 2016

NOTE: "FAIR" INDICATES FEW OR NO CLOUDS BELOW 12,000 FEET WITH NO
SIGNIFICANT WEATHER AND/OR OBSTRUCTIONS TO VISIBILITY.

OHZ001>008-015>018-024>027-034-035-043-044-090600-
   NORTHWEST OHIO

CITY           SKY/WX    TMP DP  RH WIND       PRES   REMARKS
DEFIANCE       CLOUDY    32  25  75 W8        29.63F WCI  25
FINDLAY        CLOUDY    32  27  81 W13       29.61F WCI  22
TOLEDO EXPRESS CLOUDY    32  27  81 W12       29.60F WCI  23
TOLEDO EXEC    CLOUDY    33  27  78 W13       29.61F WCI  24
LIMA           CLOUDY    28  25  88 W16       29.63F WCI  16
$$

OHZ009>014-019>023-028>033-038-089-090600-
   NORTHEAST OHIO

CITY           SKY/WX    TMP DP  RH WIND       PRES   REMARKS
CLE-HOPKINS    LGT SNOW  32  30  92 SW6       29.60F FOG     WCI  26
CLE-LAKEFRONT  LGT SNOW  34  32  92 SW9       29.57F FOG     WCI  27
CUY CO. ARPT   NOT AVBL
LORAIN-ELYRIA  CLOUDY    32  30  92 W5        29.58F FOG     WCI  27
ASHTABULA      FLURRIES  33  32  96 W7        29.56F WCI  27
AKRON-CANTON   LGT SNOW  32  30  92 W7        29.56F FOG     WCI  26
WOOSTER        FOG       25  24  96 W6        29.58F VSB 1   WCI  18
MANSFIELD      CLOUDY    31  29  92 W8        29.58S WCI  23
YOUNGSTOWN     LGT SNOW  32  30  92 SW5       29.56F WCI  27
$$

OHZ042-051>053-060>062-070>072-077>081-090600-
  SOUTHWEST OHIO

CITY           SKY/WX    TMP DP  RH WIND       PRES   REMARKS
CINC-COVINGTON LGT SNOW  23  19  85 W13G18    29.73S FOG     WCI  11
CINC-LUNKEN    LGT SNOW  24  21  88 W15       29.76F FOG     WCI  11
HAMILTON       LGT SNOW  24  21  88 W10       29.75S FOG     WCI  14
DAYTON         LGT SNOW  25  22  88 W14       29.68S FOG     WCI  13
WRIGHT-PAT AFB FLURRIES  26  22  84 W13       29.68S WCI  15
DAYTON GENERAL LGT SNOW  23  19  85 W14G21    29.69S VSB 1   WCI  11
WILMINGTON     LGT SNOW  24  22  91 W16G24    29.67S FOG     WCI  11
$$

OHZ036-037-039>041-045>050-054>059-063>069-073>076-082>088-090600-
  CENTRAL AND SOUTHEAST OHIO

CITY           SKY/WX    TMP DP  RH WIND       PRES   REMARKS
COLUMBUS       LGT SNOW  32  32 100 W9        29.61F FOG     WCI  24
OSU AIRPORT    LGT SNOW  31  29  92 NW15      29.61F FOG     WCI  20
BOLTON FIELD   NOT AVBL
RICKENBACK AFB NOT AVBL
NEWARK         CLOUDY    33  30  88 SW3       29.60F FOG
MARION         CLOUDY    32  26  78 NW10      29.61F HAZE    WCI  24
LANCASTER      LGT SNOW  33  31  92 W6        29.62S VSB 1   WCI  28
ZANESVILLE     LGT SNOW  34  32  92 W3        29.60S FOG
NEW PHILLY     LGT SNOW  32  31  96 CALM      29.59F FOG
$$




USA.gov is the U.S. government's official web portal to all federal, state and local government web resources and services.